Change the Weather History Date:

Monday, July 1, 2013

  Actual Average Record
Temperature  
Mean Temperature 71 °F -  
Max Temperature 82 °F 94 °F 104 °F (1928)
Min Temperature 62 °F 64 °F 57 °F (1942)
Cooling Degree Days 6    
Growing Degree Days 21 (Base 50)    
Moisture  
Dew Point 60 °F    
Average Humidity 72    
Maximum Humidity 84    
Minimum Humidity 42    
Precipitation  
Precipitation 0.35 in - - ()
Sea Level Pressure  
Sea Level Pressure 30.11 in    
Wind  
Wind Speed 8 mph (ENE)    
Max Wind Speed 36 mph    
Max Gust Speed 46 mph    
Visibility 9 miles    
Events Rain , Thunderstorm    
Averages and records for this station are not official NWS values.
T = Trace of Precipitation, MM = Missing Value Source: NWS Daily Summary

Daily Weather History Graph

Daily Weather History Graph

Search for Another Location

Airport or City:

Trip Planner

Search our weather history database for the weather conditions in past years. The results will help you decide how hot, cold, wet, or windy it might be!

Date:

Astronomy

Jul. 01, 2013 Rise Set
Actual Time 5:43 AM MDT 8:12 PM MDT
Civil Twilight 5:14 AM MDT 8:42 PM MDT
Nautical Twilight 4:37 AM MDT 9:19 PM MDT
Astronomical Twilight 3:56 AM MDT 9:59 PM MDT
Moon 1:06 AM MDT (7/1) 2:37 PM MDT (7/1)
Length of Visible Light 15h 28m
Length of Day
14h 29m
Waning Crescent, 35% of the Moon is Illuminated
Jul 1
Waning Crescent
Jul 8
New
Jul 15
First Quarter
Jul 22
Full
Jul 29
Last Quarter

Hourly Weather History & Observations

Time (MDT) Temp. Heat Index Dew Point Humidity Pressure Visibility Wind Dir Wind Speed Gust Speed Precip Events Conditions
12:09 AM 68.0 °F - 62.6 °F 83% 30.22 in 10.0 mi NE 12.7 mph - N/A   Partly Cloudy
12:53 AM 68.0 °F - 62.1 °F 81% 30.02 in 10.0 mi North 3.5 mph - N/A   Mostly Cloudy
1:53 AM 66.9 °F - 62.1 °F 84% 30.02 in 10.0 mi Calm Calm - N/A   Partly Cloudy
2:53 AM 68.0 °F - 63.0 °F 84% 30.01 in 10.0 mi Calm Calm - N/A   Overcast
3:53 AM 68.0 °F - 62.1 °F 81% 30.02 in 10.0 mi NE 3.5 mph - N/A   Overcast
4:53 AM 68.0 °F - 61.0 °F 78% 30.04 in 10.0 mi Calm Calm - N/A   Overcast
5:53 AM 68.0 °F - 61.0 °F 78% 30.07 in 10.0 mi ENE 5.8 mph - N/A   Overcast
6:53 AM 68.0 °F - 61.0 °F 78% 30.11 in 10.0 mi Calm Calm - N/A   Mostly Cloudy
7:53 AM 69.1 °F - 61.0 °F 75% 30.11 in 10.0 mi SSE 3.5 mph - N/A   Overcast
8:53 AM 71.1 °F - 61.0 °F 70% 30.12 in 10.0 mi Calm Calm - N/A   Overcast
9:53 AM 72.0 °F - 59.0 °F 64% 30.11 in 10.0 mi NNW 3.5 mph - N/A   Mostly Cloudy
10:53 AM 73.9 °F - 60.1 °F 62% 30.09 in 10.0 mi Calm Calm - N/A   Clear
11:53 AM 75.9 °F - 59.0 °F 56% 30.07 in 10.0 mi Variable 3.5 mph - N/A   Clear
12:53 PM 79.0 °F - 60.1 °F 52% 30.04 in 10.0 mi East 4.6 mph - N/A   Clear
1:53 PM 80.1 °F 80.6 °F 57.9 °F 47% 30.00 in 10.0 mi South 6.9 mph - N/A   Partly Cloudy
2:53 PM 80.1 °F 80.1 °F 55.0 °F 42% 30.00 in 10.0 mi ESE 8.1 mph - N/A   Clear
3:25 PM 78.8 °F - 55.4 °F 44% 30.23 in 9.0 mi NE 31.1 mph 40.3 mph N/A Thunderstorm Squalls
3:36 PM 64.4 °F - 59.0 °F 83% 30.24 in 2.5 mi NE 35.7 mph 46.0 mph 0.01 in Rain , Thunderstorm Light Thunderstorms and Rain
3:41 PM 62.6 °F - 57.2 °F 82% 30.25 in 1.8 mi NE 31.1 mph 44.9 mph 0.07 in Rain , Thunderstorm Heavy Thunderstorms and Rain
3:53 PM 63.0 °F - 57.9 °F 84% 30.14 in 1.2 mi NNE 25.3 mph 38.0 mph 0.28 in Rain , Thunderstorm Heavy Thunderstorms and Rain
4:03 PM 64.4 °F - 57.2 °F 77% 30.27 in 2.5 mi NE 20.7 mph 32.2 mph 0.04 in Rain , Thunderstorm Heavy Thunderstorms and Rain
4:12 PM 64.4 °F - 59.0 °F 83% 30.26 in 4.0 mi NE 13.8 mph - 0.07 in Rain , Thunderstorm Thunderstorms and Rain
4:26 PM 64.4 °F - 59.0 °F 83% 30.25 in 8.0 mi ENE 15.0 mph - 0.07 in Rain Light Rain
4:53 PM 66.9 °F - 59.0 °F 76% 30.09 in 10.0 mi ENE 16.1 mph - 0.07 in   Mostly Cloudy
5:53 PM 71.1 °F - 60.1 °F 68% 30.05 in 10.0 mi East 8.1 mph - N/A   Clear
6:53 PM 73.0 °F - 57.0 °F 57% 30.06 in 10.0 mi East 4.6 mph - N/A   Clear
7:53 PM 71.1 °F - 60.1 °F 68% 30.06 in 10.0 mi ENE 3.5 mph - N/A   Clear
8:53 PM 69.1 °F - 60.1 °F 73% 30.06 in 10.0 mi Calm Calm - N/A   Clear
9:53 PM 68.0 °F - 61.0 °F 78% 30.10 in 10.0 mi North 4.6 mph - N/A   Clear
10:53 PM 66.9 °F - 61.0 °F 81% 30.12 in 10.0 mi WSW 3.5 mph - N/A   Clear
11:53 PM 66.9 °F - 61.0 °F 81% 30.12 in 10.0 mi Calm Calm - N/A   Clear